Location: Recife
(8.0585°S, 34.8848°W)
Time: 12:02:45
(UTC-03:00)

Transit 4A - Pass Details

Date: 21 April 2026
Orbit: 861 x 980 km, 66.8° (Epoch: 12 May)

Event Time Altitude Azimuth Distance (km) Brightness Sun altitude
Rises 23:47:04 0° 327° (NNW) 3,646 - -81.8°
Reaches altitude 10° 23:49:45 10° 321° (NW) 2,692 - -81.2°
Maximum altitude 23:55:42 45° 250° (WSW) 1,270 - -79.9°
Drops below altitude 10° 00:01:33 10° 178° (S) 2,637 - -78.6°
Sets 00:04:10 0° 171° (S) 3,564 - -78.0°
